Location: Casilda
(33.0440°S, 61.1680°W)
Time: 09:36:25
(UTC-03:00)

ISS - Pass Details

Date: 09 August 2022
Orbit: 412 x 420 km, 51.6° (Epoch: 13 August)

Event Time Altitude Azimuth Distance (km) Brightness Sun altitude
Exits shadow 05:46:31 23° 131° (SE) 970 -1.5 -25.9°
Drops below altitude 10° 05:48:51 10° 89° (E) 1,514 0.1 -25.4°
Sets 05:51:14 0° 74° (ENE) 2,371 1.3 -24.9°
